Location: Laas
(43.4693°N, 0.3073°E)
Time: 15:08:57
(UTC+00:00)

ARGOS - Pass Details

Date: 25 October 2020
Orbit: 820 x 835 km, 98.4° (Epoch: 23 November)

Event Time Altitude Azimuth Distance (km) Brightness Sun altitude
Exits shadow 19:32:00 46° 193° (SSW) 1,110 3.7 -28.3°
Maximum altitude 19:33:33 68° 258° (WSW) 896 3.4 -28.5°
Drops below altitude 10° 19:38:59 10° 342° (NNW) 2,455 5.9 -29.5°
Sets 19:41:22 0° 345° (NNW) 3,394 6.7 -29.9°
